Terminal Aerodrome Forecast
Issued by NWS

Home | Current Version | Previous Version | Graphics & Text | Print | Product List | Glossary On
Versions: 1 2 3 4 5 6 7 8 9 10 11 12 13 14 15 16 17 18 19
000
FTUS43 KBIS 010800 AAA
TAFDIK
TAF AMD
KDIK 010803Z 0108/0206 02008KT P6SM BKN060
      TEMPO 0108/0109 2SM -SN OVC030
     FM011700 28005KT P6SM BKN080
     FM012300 18006KT P6SM FEW250=

USA.gov is the U.S. government's official web portal to all federal, state and local government web resources and services.